Wind_Speed
4 4 4 5 6 7 7 7 8 8 7 7 7 7 5 4 2 2 4 3 4 4 5 4 2 6 7 8 7 6 3 5 3 7 12 12 13 14 18 17 17 20 19 20 20
5 4 5 5 6 6 7 7 7 7 7 7 6 6 6 4 3 6 5 5 5 4 4 4 3 3 4 3 4 4 3 4 6 8 10 10 12 17 15 17 17 15 14 13 18
6 5 6 6 6 7 7 7 7 7 7 6 4 4 5 7 8 7 7 8 7 5 5 3 2 4 4 2 1 3 3 1 3 4 8 11 13 14 18 19 20 20 21 22 23
7 6 8 8 8 9 9 8 7 7 6 4 3 4 4 4 4 7 8 8 5 4 4 4 3 4 4 4 4 2 2 3 4 7 8 10 13 17 15 17 19 20 19 21 32
7 8 9 10 10 10 9 8 8 8 7 6 6 8 8 9 8 7 6 5 4 3 2 4 4 3 5 5 5 4 3 3 3 5 7 12 16 16 18 19 18 18 18 31 35
8 9 10 11 11 11 10 9 9 10 10 9 9 7 6 6 7 6 6 5 4 2 3 4 4 3 3 5 4 4 3 4 5 7 12 13 14 14 15 15 16 15 24 34 36
9 10 11 11 12 13 12 11 11 11 11 7 8 9 8 8 7 6 6 5 4 4 5 6 6 7 5 1 2 1 4 7 11 11 14 14 15 16 15 13 13 18 27 37 37
9 10 10 11 12 13 13 12 9 9 8 8 9 7 7 7 5 7 6 5 5 6 7 7 5 4 3 1 1 4 4 10 11 11 13 15 14 11 9 11 16 20 28 40 41
9 10 11 12 12 13 12 11 10 9 9 8 6 5 8 7 8 6 6 6 7 6 5 6 3 7 5 2 0 1 4 9 4 9 9 13 10 6 7 13 17 23 34 42 43
9 11 12 12 12 12 12 10 10 8 7 7 4 6 6 7 6 5 8 8 7 5 6 6 6 8 12 3 5 9 10 9 10 7 8 14 10 4 8 15 18 22 39 44 44
10 11 11 11 11 11 12 9 8 10 8 11 10 11 7 8 7 9 8 9 8 9 6 7 6 13 13 12 14 11 8 3 20 4 13 10 5 3 12 15 19 23 40 48 47
11 11 11 11 11 13 10 10 11 10 11 13 9 7 10 10 10 9 10 8 9 8 7 8 15 13 17 15 13 6 7 13 2 9 10 7 2 5 10 14 22 31 43 52 50
12 12 12 12 13 12 12 12 12 11 13 11 12 8 6 11 10 11 12 10 12 11 7 11 13 14 15 14 12 10 10 23 13 10 6 6 2 5 7 13 21 29 44 49 48
13 12 12 13 13 14 15 10 8 6 7 10 6 10 8 3 14 13 12 12 12 13 7 8 13 11 17 17 20 19 22 9 4 8 4 4 2 5 13 17 25 37 47 48 47
13 13 13 14 15 16 12 8 6 4 3 4 9 8 12 10 8 14 15 12 11 13 11 8 11 11 21 19 23 24 16 4 1 5 3 2 7 10 17 30 35 41 48 44 44
15 14 14 14 17 15 9 6 4 3 3 4 6 8 8 10 11 15 18 16 10 7 8 8 12 14 22 17 22 23 6 2 3 2 2 3 7 9 24 35 41 46 42 44 43
16 15 16 17 18 15 9 5 4 2 8 6 8 8 7 10 11 10 16 18 17 3 10 8 12 13 20 21 12 25 17 4 2 3 4 9 4 7 17 30 41 44 42 43 41
18 17 17 17 17 16 9 5 2 7 7 10 9 9 8 6 9 10 16 21 20 16 5 10 5 16 18 23 14 26 20 6 4 3 8 14 2 3 15 31 40 36 38 40 40
18 17 17 17 17 16 11 5 4 10 12 12 9 6 5 6 6 8 4 21 18 16 7 8 5 12 14 17 18 11 14 12 3 7 4 5 4 9 13 33 40 36 39 40 40
19 18 17 18 18 17 13 6 9 11 14 11 5 5 4 4 6 5 11 15 15 14 14 9 3 9 10 10 16 16 20 7 7 4 5 6 6 10 33 47 40 39 42 41 41
21 20 19 20 19 17 11 9 12 13 13 9 8 9 7 6 5 8 9 8 13 12 12 9 7 7 7 8 16 14 20 11 5 4 2 3 4 12 35 42 36 37 41 43 42
22 20 22 21 19 17 11 11 12 14 11 10 9 9 6 6 5 6 7 10 10 11 10 10 6 4 5 6 12 11 16 18 4 4 5 5 9 9 36 30 31 36 40 41 39
23 21 23 22 19 16 13 12 14 14 12 12 10 8 6 5 3 5 7 8 9 10 9 9 9 4 3 5 9 8 11 15 11 7 4 2 9 30 23 25 29 36 39 41 36
22 19 22 23 18 15 12 14 15 14 12 11 10 9 7 4 4 3 6 6 7 9 10 7 9 6 1 3 6 7 8 13 15 6 14 12 29 29 26 28 32 36 38 38 35
23 19 23 24 22 17 15 14 15 15 12 12 11 8 7 3 3 3 5 5 5 8 9 9 8 8 3 5 4 4 8 13 17 18 10 21 28 30 24 28 30 35 37 38 35
24 18 19 13 21 17 16 15 14 12 11 12 8 9 7 4 2 2 4 5 5 7 9 10 9 8 3 8 2 2 10 15 19 20 19 17 26 25 19 22 26 33 37 38 35
23 19 17 19 18 20 16 15 15 13 11 12 11 10 7 4 1 2 2 2 3 7 10 11 11 7 2 8 3 3 10 16 20 23 17 24 27 26 19 22 29 34 38 38 33
Wind_Direction
92 119 143 143 141 136 132 127 124 124 126 121 112 111 107 94 59 88 67 83 95 106 118 105 154 163 164 175 169 183 197 150 224 302 318 314 324 321 316 321 315 317 318 321 327
81 106 137 150 156 145 139 133 130 129 128 120 119 114 106 99 92 88 93 91 87 81 111 131 184 167 158 153 180 214 247 262 269 308 319 320 320 319 325 316 311 317 323 329 326
87 107 117 126 142 146 140 136 135 133 128 128 125 98 93 79 77 81 83 72 63 56 49 16 11 70 93 98 184 232 248 247 335 322 314 315 313 317 318 313 323 329 337 342 341
98 105 109 119 131 135 132 134 137 136 140 132 86 66 52 70 77 70 72 67 58 44 21 340 349 36 56 75 68 61 98 46 2 315 304 306 313 317 319 327 333 341 345 347 345
105 106 111 121 126 127 125 129 137 139 128 103 88 99 96 87 85 67 54 43 17 28 359 13 28 50 34 46 45 48 80 70 338 296 292 292 308 318 322 330 338 346 353 353 353
114 114 117 120 123 121 120 122 130 129 121 109 101 105 100 91 73 56 51 60 54 25 4 16 8 25 56 89 62 81 77 3 336 301 302 303 316 320 328 340 340 343 353 355 349
122 121 119 121 124 124 122 119 122 128 128 104 95 101 80 75 61 57 57 61 59 1 351 4 20 26 10 158 88 50 342 339 326 320 328 323 321 320 327 337 335 350 357 352 345
132 126 122 125 129 131 127 126 126 126 116 107 103 93 73 63 58 56 44 21 10 2 7 17 25 9 355 179 339 342 346 334 319 317 311 310 303 307 336 337 341 345 348 345 344
141 130 128 128 131 133 132 133 123 117 113 102 94 98 58 50 37 36 37 15 14 19 26 31 26 12 34 139 221 334 300 321 331 298 300 309 309 310 358 320 331 347 345 343 339
150 137 137 132 133 135 132 130 122 113 102 85 67 83 65 56 38 50 50 31 19 11 9 28 26 43 72 65 333 319 306 307 330 296 284 307 296 347 299 314 335 342 346 342 341
158 148 148 142 138 136 132 125 112 104 100 100 83 72 66 62 52 47 39 32 22 17 20 23 4 32 27 9 346 328 306 313 331 269 309 301 296 309 297 306 326 335 341 345 346
164 156 153 149 148 144 138 136 124 111 99 89 76 78 63 60 41 45 46 35 31 24 32 20 29 36 18 352 343 335 294 313 7 290 307 269 306 44 291 311 330 328 338 347 346
172 162 157 154 151 148 139 135 126 109 88 89 73 72 85 63 57 46 47 40 29 24 47 32 36 27 3 3 15 8 329 326 310 270 290 258 153 200 277 311 318 323 343 343 344
178 164 160 160 156 146 141 133 131 122 89 61 65 48 60 56 40 41 38 40 29 30 38 26 37 13 13 14 14 10 343 326 247 218 260 221 273 248 311 319 326 342 339 343 344
179 167 164 155 157 151 141 121 115 141 81 74 60 62 56 59 66 51 40 29 19 28 36 39 30 18 23 16 19 1 347 18 86 215 224 245 264 355 344 345 344 341 344 343 344
181 174 167 164 161 157 146 132 132 135 96 102 89 74 79 65 66 57 36 24 29 32 33 45 32 31 22 20 25 8 10 69 91 168 200 231 322 4 3 355 346 342 343 345 343
184 181 172 169 166 163 151 134 131 112 140 125 116 89 96 74 63 58 27 29 41 36 23 27 23 20 19 26 20 22 37 15 336 345 237 331 355 30 355 349 346 342 347 345 344
187 184 179 176 175 176 174 167 159 147 155 151 125 100 92 74 52 44 30 32 32 27 35 16 27 20 20 24 16 23 30 50 273 293 301 306 232 291 341 336 339 345 344 344 350
188 185 184 177 181 184 185 191 161 159 159 154 142 112 90 76 47 34 6 24 28 30 30 9 39 19 24 27 26 18 22 14 323 283 298 308 301 280 292 331 343 350 347 350 355
186 185 181 179 180 181 181 190 168 163 163 163 163 147 125 108 51 27 21 13 18 22 22 13 40 11 18 20 24 35 25 7 2 32 317 302 303 309 343 348 345 350 351 352 356
185 184 181 182 181 181 189 184 169 164 165 167 174 154 145 115 74 45 27 13 19 15 14 9 8 0 18 25 22 30 32 24 36 21 207 303 284 335 343 341 342 350 353 354 355
186 187 185 185 184 188 187 177 171 169 173 168 162 165 147 145 77 51 36 30 24 16 11 10 355 3 22 38 19 21 20 20 36 314 253 252 287 316 334 333 344 352 352 356 357
188 191 191 191 192 192 185 179 177 175 172 172 173 173 156 150 133 45 27 23 25 23 15 14 5 358 351 343 356 1 2 4 7 357 233 266 320 327 342 340 352 353 355 357 358
187 192 196 197 197 193 195 185 180 179 180 181 181 171 164 142 108 44 21 22 25 21 17 12 6 16 8 316 322 336 350 352 354 344 319 297 322 339 354 346 353 355 354 358 2
190 196 198 202 199 198 193 193 188 184 187 182 183 186 177 170 132 40 13 14 18 17 17 12 357 2 13 1 346 1 350 348 340 337 329 331 334 344 354 345 351 352 352 0 3
195 198 201 201 200 198 196 193 195 194 193 191 194 186 182 176 158 11 2 9 24 7 9 6 355 354 9 358 353 331 355 348 339 334 332 334 343 349 353 340 350 351 356 3 5
198 200 203 203 199 201 201 198 194 192 193 190 191 193 194 189 210 346 345 360 18 11 8 1 359 349 325 347 320 293 347 343 336 331 334 346 346 347 360 350 355 351 359 359 2
Height
3182 3182 3183 3183 3184 3184 3184 3185 3186 3186 3187 3187 3187 3188 3187 3187 3187 3187 3186 3186 3184 3183 3183 3183 3182 3181 3181 3181 3181 3182 3183 3183 3183 3183 3183 3182 3180 3179 3176 3173 3169 3166 3163 3162 3159
3182 3182 3182 3183 3184 3184 3185 3186 3186 3187 3187 3188 3188 3189 3189 3188 3188 3186 3186 3185 3184 3184 3183 3182 3182 3183 3183 3182 3183 3183 3184 3184 3183 3181 3180 3179 3178 3176 3174 3170 3167 3164 3162 3161 3158
3183 3183 3182 3182 3184 3185 3185 3186 3187 3187 3188 3188 3189 3189 3189 3189 3189 3187 3187 3186 3186 3185 3184 3184 3183 3183 3182 3182 3181 3181 3181 3181 3180 3180 3178 3176 3175 3173 3169 3166 3163 3161 3159 3156 3153
3184 3183 3183 3183 3184 3185 3186 3187 3187 3188 3188 3189 3190 3190 3189 3189 3191 3189 3188 3187 3187 3186 3185 3185 3184 3182 3182 3181 3181 3181 3181 3181 3180 3178 3177 3175 3173 3170 3167 3164 3161 3159 3157 3154 3148
3184 3184 3184 3185 3186 3186 3187 3187 3188 3189 3189 3190 3191 3191 3191 3191 3191 3190 3190 3188 3187 3186 3185 3184 3183 3182 3181 3180 3180 3180 3180 3180 3179 3178 3176 3174 3172 3168 3164 3162 3160 3157 3154 3149 3143
3185 3185 3186 3186 3187 3187 3188 3189 3189 3190 3191 3191 3192 3192 3192 3193 3191 3190 3190 3189 3188 3186 3185 3184 3182 3182 3181 3180 3179 3179 3178 3178 3177 3176 3174 3171 3168 3165 3163 3161 3159 3155 3152 3146 3141
3186 3186 3186 3188 3188 3189 3189 3190 3191 3191 3192 3193 3193 3193 3193 3193 3192 3191 3190 3189 3188 3187 3185 3184 3183 3182 3179 3178 3178 3177 3178 3176 3175 3172 3169 3168 3166 3163 3162 3160 3157 3153 3149 3144 3137
3187 3187 3187 3189 3190 3190 3191 3192 3193 3193 3194 3195 3195 3195 3194 3193 3192 3191 3191 3190 3188 3187 3186 3184 3182 3181 3179 3178 3176 3176 3176 3174 3172 3170 3169 3168 3165 3162 3161 3157 3155 3151 3146 3140 3133
3188 3188 3188 3190 3191 3192 3192 3193 3194 3194 3195 3196 3196 3196 3195 3194 3192 3192 3191 3190 3189 3187 3186 3184 3182 3180 3179 3178 3177 3175 3174 3172 3170 3169 3167 3167 3163 3160 3159 3155 3152 3148 3143 3136 3129
3189 3189 3189 3191 3192 3193 3194 3195 3195 3195 3196 3196 3197 3198 3197 3195 3193 3193 3191 3191 3189 3188 3186 3185 3182 3181 3180 3179 3177 3175 3173 3172 3171 3171 3168 3164 3161 3160 3155 3152 3149 3146 3139 3133 3125
3189 3189 3190 3191 3193 3194 3195 3196 3199 3198 3197 3196 3198 3197 3197 3196 3195 3194 3192 3191 3190 3187 3185 3184 3183 3179 3179 3178 3175 3172 3171 3170 3169 3167 3165 3162 3160 3157 3153 3151 3148 3142 3136 3128 3120
3188 3189 3190 3192 3193 3195 3196 3197 3197 3199 3198 3197 3198 3198 3198 3196 3196 3194 3193 3193 3189 3186 3184 3184 3181 3181 3179 3177 3174 3171 3170 3168 3168 3163 3163 3160 3158 3157 3152 3150 3146 3140 3133 3122 3115
3188 3189 3190 3192 3193 3195 3196 3198 3198 3198 3199 3199 3199 3199 3199 3199 3197 3195 3194 3192 3189 3186 3184 3183 3183 3181 3180 3176 3173 3170 3168 3163 3163 3160 3160 3158 3156 3154 3153 3151 3147 3140 3131 3123 3113
3187 3189 3191 3192 3195 3195 3197 3198 3198 3199 3200 3202 3200 3200 3199 3198 3197 3195 3194 3193 3189 3187 3184 3184 3182 3182 3178 3174 3171 3167 3163 3159 3157 3158 3158 3157 3157 3155 3152 3148 3143 3134 3127 3119 3110
3187 3188 3190 3192 3193 3195 3198 3197 3198 3199 3200 3205 3202 3202 3199 3200 3200 3198 3195 3192 3189 3187 3187 3186 3183 3180 3176 3173 3170 3167 3160 3158 3156 3155 3156 3158 3156 3152 3147 3141 3136 3131 3124 3116 3107
3185 3187 3190 3191 3193 3196 3197 3197 3198 3201 3201 3203 3203 3202 3202 3200 3199 3197 3196 3193 3190 3188 3186 3184 3183 3180 3177 3174 3171 3167 3159 3158 3156 3155 3156 3155 3155 3151 3146 3142 3135 3129 3123 3113 3104
3184 3187 3189 3190 3193 3195 3196 3197 3199 3198 3203 3204 3203 3202 3202 3201 3200 3199 3196 3192 3189 3187 3185 3183 3181 3180 3179 3175 3172 3168 3160 3158 3159 3157 3156 3153 3152 3153 3148 3144 3137 3127 3119 3112 3102
3183 3185 3187 3190 3192 3195 3196 3198 3198 3198 3199 3201 3202 3202 3202 3201 3200 3198 3197 3192 3189 3187 3185 3184 3180 3181 3180 3176 3173 3169 3166 3166 3166 3165 3158 3154 3152 3150 3147 3143 3137 3130 3122 3111 3100
3182 3184 3186 3188 3191 3193 3196 3196 3196 3197 3199 3200 3201 3202 3201 3201 3200 3197 3195 3192 3190 3188 3187 3184 3184 3183 3181 3179 3177 3172 3169 3169 3166 3164 3162 3154 3151 3147 3145 3141 3132 3126 3116 3106 3096
3179 3182 3185 3187 3189 3192 3194 3194 3194 3196 3198 3199 3200 3201 3201 3201 3200 3197 3195 3194 3190 3188 3186 3184 3184 3183 3182 3180 3178 3175 3173 3169 3168 3171 3166 3152 3149 3146 3139 3132 3128 3121 3112 3104 3095
3177 3180 3183 3185 3188 3191 3192 3192 3193 3195 3197 3199 3199 3200 3200 3200 3199 3198 3197 3195 3191 3188 3186 3184 3184 3185 3182 3180 3177 3176 3173 3172 3171 3171 3171 3165 3148 3146 3142 3135 3127 3121 3113 3104 3094
3175 3178 3181 3184 3187 3188 3190 3190 3192 3194 3196 3197 3198 3199 3199 3199 3199 3197 3196 3194 3191 3189 3186 3185 3183 3181 3182 3180 3178 3176 3175 3173 3171 3170 3167 3165 3152 3148 3145 3137 3130 3123 3114 3105 3095
3172 3176 3179 3182 3184 3186 3188 3189 3191 3192 3194 3196 3197 3198 3198 3198 3198 3197 3195 3194 3191 3189 3187 3185 3183 3181 3180 3182 3178 3176 3175 3172 3169 3167 3165 3164 3155 3150 3143 3135 3130 3122 3113 3104 3094
3171 3174 3176 3179 3182 3184 3186 3187 3189 3191 3193 3194 3196 3197 3197 3197 3197 3196 3194 3193 3191 3189 3187 3185 3183 3181 3181 3180 3179 3176 3173 3171 3169 3166 3162 3158 3150 3144 3139 3133 3128 3119 3112 3103 3094
3167 3170 3172 3175 3179 3182 3184 3186 3188 3189 3191 3193 3195 3196 3197 3197 3196 3195 3194 3192 3190 3188 3186 3184 3182 3180 3179 3178 3176 3175 3173 3170 3167 3164 3160 3156 3149 3143 3138 3130 3125 3119 3112 3101 3093
3164 3168 3170 3173 3176 3179 3181 3184 3186 3188 3190 3192 3193 3194 3195 3196 3196 3194 3193 3191 3190 3188 3186 3183 3181 3178 3177 3176 3175 3173 3171 3169 3166 3161 3157 3153 3149 3142 3137 3131 3127 3119 3108 3099 3092
3161 3165 3169 3170 3172 3176 3179 3182 3184 3186 3188 3190 3191 3193 3193 3194 3194 3193 3192 3190 3189 3188 3185 3183 3180 3177 3176 3175 3173 3173 3171 3168 3164 3159 3155 3150 3145 3138 3136 3130 3124 3117 3109 3099 3092